EIN27T EIDW-EGBB

Flight info

Callsign EIN27T
Flight time 0h 37m
Altitude 23000
Route DEXEN4E DEXEN Y124 DOLOP
Aircraft A320/M-SDE3FGHIRWY/LB1

Departure

Time 2026-05-04 11:46
Airport Dublin Airport (EIDW)

Arrival

Time 2026-05-04 12:23
Airport Birmingham Airport (EGBB)
Time Latitude Longitude Altitude Speed Heading
2026-05-04 11:19 53.42568 -6.24679 211 ft 0 kts 71°
2026-05-04 11:35 53.42561 -6.24715 215 ft 4 kts 71°
2026-05-04 11:35 53.42552 -6.24757 211 ft 3 kts 71°
2026-05-04 11:35 53.42545 -6.24790 213 ft 4 kts 53°
2026-05-04 11:36 53.42526 -6.24812 213 ft 4 kts 348°
2026-05-04 11:36 53.42504 -6.24799 211 ft 2 kts 337°
2026-05-04 11:36 53.42502 -6.24798 211 ft 0 kts 337°
2026-05-04 11:40 53.42797 -6.25158 219 ft 10 kts 272°
2026-05-04 11:41 53.42787 -6.25261 213 ft 8 kts 239°
2026-05-04 11:41 53.42723 -6.25374 212 ft 19 kts 225°
2026-05-04 11:41 53.42635 -6.25526 211 ft 18 kts 226°
2026-05-04 11:41 53.42553 -6.25667 211 ft 16 kts 226°
2026-05-04 11:42 53.42498 -6.25762 215 ft 20 kts 224°
2026-05-04 11:42 53.42402 -6.25921 214 ft 18 kts 225°
2026-05-04 11:42 53.42316 -6.26068 214 ft 17 kts 228°
2026-05-04 11:42 53.42267 -6.26263 211 ft 22 kts 266°
2026-05-04 11:43 53.42286 -6.26596 211 ft 21 kts 280°
2026-05-04 11:43 53.42297 -6.26841 211 ft 21 kts 274°
2026-05-04 11:43 53.42307 -6.27009 213 ft 22 kts 274°
2026-05-04 11:43 53.42325 -6.27370 213 ft 24 kts 276°
2026-05-04 11:44 53.42336 -6.27558 211 ft 23 kts 275°
2026-05-04 11:44 53.42351 -6.27837 216 ft 25 kts 275°
2026-05-04 11:44 53.42363 -6.28067 211 ft 18 kts 275°
2026-05-04 11:44 53.42373 -6.28231 213 ft 9 kts 276°
2026-05-04 11:45 53.42335 -6.28321 211 ft 7 kts 199°
2026-05-04 11:45 53.42265 -6.28273 212 ft 12 kts 134°
2026-05-04 11:45 53.42234 -6.28202 213 ft 12 kts 121°
2026-05-04 11:45 53.42186 -6.27957 212 ft 36 kts 94°
2026-05-04 11:46 53.42141 -6.27100 210 ft 108 kts 96°
2026-05-04 11:46 53.42047 -6.25545 255 ft 154 kts 92°
2026-05-04 11:46 53.41964 -6.23762 928 ft 151 kts 91°
2026-05-04 11:46 53.41869 -6.22017 1564 ft 154 kts 94°
2026-05-04 11:47 53.41725 -6.19437 2009 ft 182 kts 92°
2026-05-04 11:47 53.41602 -6.17182 2325 ft 207 kts 93°
2026-05-04 11:47 53.41462 -6.14637 2706 ft 232 kts 92°
2026-05-04 11:47 53.41357 -6.12755 3018 ft 248 kts 93°
2026-05-04 11:48 53.41191 -6.09810 3736 ft 258 kts 94°
2026-05-04 11:48 53.41019 -6.06838 4623 ft 262 kts 94°
2026-05-04 11:48 53.40752 -6.03793 5484 ft 268 kts 107°
2026-05-04 11:48 53.39834 -6.01057 6340 ft 274 kts 130°
2026-05-04 11:49 53.38587 -5.98624 7190 ft 277 kts 130°
2026-05-04 11:49 53.37321 -5.96169 8016 ft 281 kts 130°
2026-05-04 11:49 53.36034 -5.93677 8848 ft 285 kts 130°
2026-05-04 11:49 53.34732 -5.91152 9671 ft 289 kts 130°
2026-05-04 11:50 53.33417 -5.88574 10372 ft 297 kts 128°
2026-05-04 11:50 53.32280 -5.85542 10604 ft 319 kts 114°
2026-05-04 11:50 53.31530 -5.81938 10941 ft 336 kts 102°
2026-05-04 11:50 53.31130 -5.78111 11578 ft 342 kts 98°
2026-05-04 11:51 53.30722 -5.74171 12307 ft 346 kts 99°
2026-05-04 11:51 53.30288 -5.70193 13029 ft 350 kts 99°
2026-05-04 11:51 53.29841 -5.66180 13776 ft 353 kts 99°
2026-05-04 11:51 53.29387 -5.62125 14427 ft 356 kts 99°
2026-05-04 11:52 53.28930 -5.58039 15073 ft 359 kts 99°
2026-05-04 11:52 53.28472 -5.53919 15743 ft 361 kts 99°
2026-05-04 11:52 53.28058 -5.49828 16382 ft 364 kts 95°
2026-05-04 11:52 53.27891 -5.45532 16616 ft 378 kts 92°
2026-05-04 11:53 53.27761 -5.41093 17046 ft 386 kts 92°
2026-05-04 11:53 53.27638 -5.36583 17627 ft 390 kts 92°
2026-05-04 11:53 53.27516 -5.32042 18246 ft 393 kts 92°
2026-05-04 11:53 53.27389 -5.27468 18801 ft 395 kts 92°
2026-05-04 11:55 53.26351 -4.94875 22364 ft 409 kts 92°
2026-05-04 11:55 53.26184 -4.90121 22835 ft 411 kts 92°
2026-05-04 11:56 53.26017 -4.85342 23054 ft 413 kts 92°
2026-05-04 11:56 53.25848 -4.80497 23090 ft 424 kts 92°
2026-05-04 11:56 53.25675 -4.75608 23086 ft 431 kts 92°
2026-05-04 11:56 53.25500 -4.70609 23083 ft 432 kts 92°
2026-05-04 11:57 53.25329 -4.65590 23085 ft 433 kts 92°
2026-05-04 11:57 53.25160 -4.60573 23082 ft 433 kts 92°
2026-05-04 11:57 53.24992 -4.55552 23084 ft 433 kts 92°
2026-05-04 11:57 53.24824 -4.50541 23087 ft 433 kts 92°
2026-05-04 11:58 53.24656 -4.45529 23086 ft 433 kts 92°
2026-05-04 11:58 53.24481 -4.40512 23085 ft 433 kts 92°
2026-05-04 11:58 53.24300 -4.35567 23083 ft 433 kts 92°
2026-05-04 11:58 53.24114 -4.30556 23084 ft 433 kts 92°
2026-05-04 11:59 53.23929 -4.25545 23080 ft 433 kts 92°
2026-05-04 11:59 53.23741 -4.20534 23081 ft 432 kts 92°
2026-05-04 11:59 53.23549 -4.15525 23082 ft 432 kts 92°
2026-05-04 11:59 53.23353 -4.10517 23082 ft 432 kts 92°
2026-05-04 12:00 53.23155 -4.05508 23080 ft 432 kts 92°
2026-05-04 12:00 53.22959 -4.00500 23083 ft 432 kts 92°
2026-05-04 12:00 53.22768 -3.95565 23077 ft 432 kts 92°
2026-05-04 12:00 53.22571 -3.90562 23081 ft 432 kts 92°
2026-05-04 12:01 53.22369 -3.85559 23074 ft 432 kts 92°
2026-05-04 12:01 53.22162 -3.80558 23075 ft 432 kts 92°
2026-05-04 12:02 53.20876 -3.50639 23070 ft 432 kts 93°
2026-05-04 12:03 53.20650 -3.45635 23071 ft 432 kts 93°
2026-05-04 12:03 53.20422 -3.40646 23071 ft 432 kts 93°
2026-05-04 12:03 53.20193 -3.35643 23071 ft 432 kts 93°
2026-05-04 12:03 53.19961 -3.30652 23070 ft 432 kts 93°
2026-05-04 12:04 53.19713 -3.25663 23067 ft 432 kts 95°
2026-05-04 12:04 53.19128 -3.20744 23066 ft 434 kts 105°
2026-05-04 12:04 53.18057 -3.16029 23063 ft 436 kts 114°
2026-05-04 12:04 53.16549 -3.11636 23066 ft 438 kts 121°
2026-05-04 12:05 53.14941 -3.07414 23065 ft 438 kts 120°
2026-05-04 12:05 53.13319 -3.03151 23074 ft 429 kts 120°
2026-05-04 12:05 53.11746 -2.99012 23086 ft 420 kts 120°
2026-05-04 12:05 53.10187 -2.94917 22933 ft 417 kts 121°
2026-05-04 12:06 53.08630 -2.90829 21731 ft 423 kts 121°
2026-05-04 12:06 53.07014 -2.86655 20395 ft 434 kts 123°
2026-05-04 12:06 53.05275 -2.82500 19308 ft 440 kts 126°
2026-05-04 12:06 53.03466 -2.78447 18734 ft 432 kts 127°
2026-05-04 12:07 53.01686 -2.74576 18186 ft 422 kts 128°
2026-05-04 12:07 52.99915 -2.70746 17629 ft 415 kts 128°
2026-05-04 12:07 52.98172 -2.66953 17108 ft 412 kts 128°
2026-05-04 12:07 52.96454 -2.63169 16584 ft 409 kts 127°
2026-05-04 12:08 52.94758 -2.59402 16064 ft 406 kts 127°
2026-05-04 12:08 52.93079 -2.55651 15551 ft 404 kts 127°
2026-05-04 12:08 52.91413 -2.51927 15039 ft 401 kts 127°
2026-05-04 12:08 52.89758 -2.48230 14528 ft 398 kts 127°
2026-05-04 12:09 52.88134 -2.44614 14029 ft 396 kts 127°
2026-05-04 12:09 52.86495 -2.40978 13495 ft 393 kts 127°
2026-05-04 12:09 52.84860 -2.37358 12993 ft 391 kts 127°
2026-05-04 12:09 52.83234 -2.33775 12490 ft 388 kts 128°
2026-05-04 12:10 52.81612 -2.30226 12002 ft 385 kts 128°
2026-05-04 12:10 52.79910 -2.26825 11515 ft 382 kts 135°
2026-05-04 12:10 52.77816 -2.24196 11044 ft 378 kts 148°
2026-05-04 12:10 52.75524 -2.22109 10580 ft 375 kts 155°
2026-05-04 12:11 52.73186 -2.20269 10054 ft 369 kts 155°
2026-05-04 12:11 52.70893 -2.18490 9660 ft 359 kts 155°
2026-05-04 12:11 52.68698 -2.16797 9348 ft 347 kts 155°
2026-05-04 12:11 52.66546 -2.15134 9024 ft 336 kts 155°
2026-05-04 12:12 52.64460 -2.13516 8711 ft 327 kts 155°
2026-05-04 12:12 52.62433 -2.11938 8393 ft 318 kts 154°
2026-05-04 12:12 52.60511 -2.10218 8098 ft 311 kts 152°
2026-05-04 12:12 52.58646 -2.08500 7788 ft 304 kts 151°
2026-05-04 12:13 52.56823 -2.06818 7488 ft 297 kts 151°
2026-05-04 12:14 52.45109 -1.95938 5347 ft 258 kts 149°
2026-05-04 12:15 52.43580 -1.94446 5040 ft 254 kts 149°
2026-05-04 12:15 52.42076 -1.92984 4736 ft 249 kts 149°
2026-05-04 12:15 52.40616 -1.91573 4424 ft 245 kts 149°
2026-05-04 12:15 52.39156 -1.90179 4108 ft 241 kts 149°
2026-05-04 12:16 52.37713 -1.88819 3810 ft 238 kts 149°
2026-05-04 12:16 52.36280 -1.87493 3498 ft 235 kts 149°
2026-05-04 12:16 52.34856 -1.86198 3194 ft 232 kts 149°
2026-05-04 12:16 52.33450 -1.84933 2879 ft 230 kts 149°
2026-05-04 12:17 52.32067 -1.83688 2638 ft 223 kts 150°
2026-05-04 12:17 52.30717 -1.82475 2432 ft 219 kts 149°
2026-05-04 12:17 52.29401 -1.81258 2222 ft 214 kts 143°
2026-05-04 12:17 52.28438 -1.79542 2068 ft 204 kts 116°
2026-05-04 12:18 52.28079 -1.77398 2002 ft 193 kts 89°
2026-05-04 12:18 52.28330 -1.75286 2009 ft 190 kts 64°
2026-05-04 12:18 52.29095 -1.73556 2015 ft 189 kts 46°
2026-05-04 12:18 52.29995 -1.71993 2011 ft 188 kts 47°
2026-05-04 12:19 52.30893 -1.70424 2011 ft 189 kts 47°
2026-05-04 12:19 52.31750 -1.68924 2035 ft 171 kts 47°
2026-05-04 12:19 52.32526 -1.67565 2005 ft 156 kts 48°
2026-05-04 12:19 52.33241 -1.66317 2001 ft 145 kts 47°
2026-05-04 12:20 52.33992 -1.65298 2002 ft 142 kts 30°
2026-05-04 12:20 52.34913 -1.64751 1999 ft 142 kts 10°
2026-05-04 12:20 52.35900 -1.64757 2007 ft 144 kts 351°
2026-05-04 12:20 52.36813 -1.65415 2016 ft 147 kts 328°
2026-05-04 12:21 52.37674 -1.66322 1943 ft 147 kts 330°
2026-05-04 12:21 52.38527 -1.67228 1799 ft 146 kts 329°
2026-05-04 12:21 52.39375 -1.68149 1627 ft 146 kts 328°
2026-05-04 12:21 52.40209 -1.69066 1456 ft 142 kts 329°
2026-05-04 12:22 52.41025 -1.69966 1249 ft 141 kts 327°
2026-05-04 12:22 52.41828 -1.70854 1046 ft 141 kts 326°
2026-05-04 12:22 52.42635 -1.71749 848 ft 140 kts 328°
2026-05-04 12:22 52.43438 -1.72639 659 ft 139 kts 329°
2026-05-04 12:23 52.44238 -1.73535 457 ft 139 kts 328°
2026-05-04 12:23 52.45020 -1.74404 320 ft 125 kts 327°
2026-05-04 12:23 52.45609 -1.75053 319 ft 78 kts 326°
2026-05-04 12:23 52.45957 -1.75439 314 ft 44 kts 327°
2026-05-04 12:24 52.46115 -1.75614 307 ft 15 kts 343°
2026-05-04 12:24 52.46191 -1.75527 306 ft 13 kts 53°
2026-05-04 12:24 52.46202 -1.75389 304 ft 14 kts 133°
2026-05-04 12:24 52.46129 -1.75304 308 ft 10 kts 145°
2026-05-04 12:25 52.46072 -1.75242 310 ft 12 kts 146°
2026-05-04 12:25 52.46001 -1.75163 314 ft 10 kts 145°
2026-05-04 12:25 52.45941 -1.75095 314 ft 13 kts 145°
2026-05-04 12:25 52.45848 -1.74992 316 ft 18 kts 146°
2026-05-04 12:26 52.45739 -1.74871 317 ft 19 kts 143°
2026-05-04 12:26 52.45631 -1.74749 315 ft 10 kts 147°
2026-05-04 12:26 52.45587 -1.74699 318 ft 8 kts 145°
2026-05-04 12:26 52.45533 -1.74641 317 ft 9 kts 148°
2026-05-04 12:27 52.45476 -1.74570 318 ft 10 kts 128°
2026-05-04 12:27 52.45438 -1.74458 320 ft 15 kts 117°
2026-05-04 12:27 52.45386 -1.74290 322 ft 17 kts 117°
2026-05-04 12:27 52.45330 -1.74103 321 ft 19 kts 116°
2026-05-04 12:28 52.45256 -1.73954 322 ft 17 kts 146°
2026-05-04 12:28 52.45168 -1.73855 332 ft 12 kts 145°
2026-05-04 12:28 52.45107 -1.73778 331 ft 10 kts 127°
2026-05-04 12:28 52.45118 -1.73683 328 ft 8 kts 56°
2026-05-04 12:29 52.45151 -1.73603 329 ft 8 kts 55°
2026-05-04 12:29 52.45183 -1.73526 328 ft 7 kts 56°
2026-05-04 12:29 52.45182 -1.73479 329 ft 4 kts 135°
2026-05-04 12:29 52.45163 -1.73456 329 ft 3 kts 143°
2026-05-04 12:30 52.45148 -1.73439 330 ft 2 kts 145°
2026-05-04 12:30 52.45143 -1.73434 330 ft 0 kts 146°